Location: Hylvaty SDH
(49.9612°N, 16.4057°E)
Time: 23:02:42
(UTC+02:00)

A-11 Canister half - Pass Details

Date: 11 October 2020
Orbit: 1515 x 1685 km, 47.2° (Epoch: 20 October)

Event Time Altitude Azimuth Distance (km) Brightness Sun altitude
Exits shadow 05:36:07 20° 270° (W) 3,023 9.9 -15.9°
Maximum altitude 05:43:10 73° 190° (S) 1,602 9.0 -14.8°
Drops below altitude 10° 05:52:24 10° 108° (ESE) 3,682 12.1 -13.3°
Sets 05:55:24 0° 107° (ESE) 4,656 13.0 -12.8°
